| time (UTC) | temp F | wind direction | speed knots | gust knots | rain 1hr in | rain 24hr in | rain mn in | humidity % | barometer mb |
| 20260906021513 | 81 | 40 | 0.0 | 0.0 | 0.00 | 0.00 | 0.00 | 78 | 1011.6 |
| 20260906020009 | 81 | 40 | 0.0 | 0.0 | 0.00 | 0.00 | 0.00 | 78 | 1011.4 |
| 20260906014517 | 82 | 40 | 0.0 | 0.0 | 0.00 | 0.00 | 0.00 | 78 | 1011.4 |
| 20260906013009 | 82 | 40 | 0.0 | 0.0 | 0.00 | 0.00 | 0.00 | 79 | 1011.3 |
| 20260906011515 | 83 | 40 | 0.0 | 0.0 | 0.00 | 0.00 | 0.00 | 78 | 1011.3 |
| 20260906010007 | 84 | 40 | 0.0 | 0.0 | 0.00 | 0.00 | 0.00 | 78 | 1011.0 |
| 20260906004522 | 85 | 40 | 0.0 | 0.0 | 0.00 | 0.00 | 0.00 | 78 | 1010.9 |
| 20260906003010 | 85 | 40 | 0.0 | 0.0 | 0.00 | 0.00 | 0.00 | 78 | 1011.0 |
| 20260906001519 | 86 | 40 | 0.0 | 0.0 | 0.00 | 0.00 | 0.00 | 77 | 1011.0 |
| 20260906000010 | 87 | 40 | 0.0 | 0.0 | 0.00 | 0.00 | 0.00 | 75 | 1011.0 |
| 20260905234558 | 89 | 40 | 0.0 | 0.0 | 0.00 | 0.00 | 0.00 | 74 | 1010.9 |
| 20260905233023 | 90 | 40 | 0.0 | 0.0 | 0.00 | 0.00 | 0.00 | 73 | 1011.1 |
| 20260905231525 | 91 | 40 | 0.0 | 0.0 | 0.00 | 0.00 | 0.00 | 72 | 1011.0 |
| 20260905230013 | 92 | 40 | 0.0 | 0.0 | 0.00 | 0.00 | 0.00 | 70 | 1011.2 |
| 20260905224508 | 92 | 40 | 0.0 | 0.0 | 0.00 | 0.00 | 0.00 | 68 | 1011.1 |
| 20260905223016 | 93 | 40 | 0.0 | 0.0 | 0.00 | 0.00 | 0.00 | 66 | 1011.0 |
| 20260905221508 | 94 | 40 | 0.0 | 0.0 | 0.00 | 0.00 | 0.00 | 61 | 1011.0 |
| 20260905220017 | 96 | 40 | 0.0 | 0.0 | 0.00 | 0.00 | 0.00 | 60 | 1011.3 |
| 20260905214509 | 96 | 40 | 0.0 | 0.0 | 0.00 | 0.00 | 0.00 | 59 | 1011.3 |
| 20260905213020 | 97 | 40 | 0.0 | 0.9 | 0.00 | 0.00 | 0.00 | 56 | 1011.4 |
| 20260905211511 | 98 | 40 | 0.0 | 0.0 | 0.00 | 0.00 | 0.00 | 55 | 1011.4 |
| 20260905210023 | 98 | 40 | 0.0 | 0.0 | 0.00 | 0.00 | 0.00 | 53 | 1011.5 |
| 20260905204512 | 98 | 40 | 0.0 | 0.0 | 0.00 | 0.00 | 0.00 | 55 | 1011.7 |
| 20260905203007 | 98 | 40 | 0.0 | 0.0 | 0.00 | 0.00 | 0.00 | 56 | 1011.9 |
| 20260905201514 | 98 | 40 | 0.0 | 0.0 | 0.00 | 0.00 | 0.00 | 55 | 1012.1 |
| 20260905200009 | 97 | 40 | 0.0 | 0.9 | 0.00 | 0.00 | 0.00 | 53 | 1012.4 |
| 20260905194515 | 96 | 40 | 0.0 | 0.0 | 0.00 | 0.00 | 0.00 | 57 | 1012.6 |
| 20260905193016 | 94 | 40 | 0.0 | 0.9 | 0.00 | 0.00 | 0.00 | 54 | 1012.9 |
| 20260905191519 | 95 | 40 | 0.0 | 3.5 | 0.00 | 0.00 | 0.00 | 52 | 1013.2 |
| 20260905190014 | 97 | 28 | 0.0 | 3.5 | 0.00 | 0.00 | 0.00 | 55 | 1013.3 |
| 20260905184523 | 98 | 40 | 0.0 | 0.0 | 0.00 | 0.00 | 0.00 | 52 | 1013.4 |
| 20260905183024 | 99 | 70 | 0.0 | 0.0 | 0.00 | 0.00 | 0.00 | 55 | 1013.5 |
| 20260905181511 | 98 | 70 | 0.0 | 0.0 | 0.00 | 0.00 | 0.00 | 58 | 1013.6 |
| 20260905180017 | 98 | 70 | 0.0 | 0.0 | 0.00 | 0.00 | 0.00 | 56 | 1013.8 |
| 20260905174516 | 98 | 70 | 0.0 | 0.0 | 0.00 | 0.00 | 0.00 | 60 | 1013.8 |
| 20260905173015 | 97 | 70 | 0.0 | 0.0 | 0.00 | 0.00 | 0.00 | 55 | 1013.9 |
| 20260905171525 | 96 | 59 | 0.0 | 0.0 | 0.00 | 0.00 | 0.00 | 58 | 1014.1 |
| 20260905170013 | 94 | 59 | 0.0 | 0.0 | 0.00 | 0.00 | 0.00 | 64 | 1014.3 |
| 20260905164524 | 93 | 59 | 0.0 | 0.0 | 0.00 | 0.00 | 0.00 | 66 | 1014.5 |
| 20260905163011 | 91 | 59 | 0.0 | 0.0 | 0.00 | 0.00 | 0.00 | 69 | 1014.6 |
| 20260905161523 | 89 | 59 | 0.0 | 0.0 | 0.00 | 0.00 | 0.00 | 74 | 1014.7 |
| 20260905160022 | 87 | 59 | 0.0 | 0.0 | 0.00 | 0.00 | 0.00 | 77 | 1014.7 |
| 20260905154519 | 85 | 59 | 0.0 | 0.0 | 0.00 | 0.00 | 0.00 | 77 | 1014.8 |
| 20260905153012 | 82 | 59 | 0.0 | 0.0 | 0.00 | 0.00 | 0.00 | 76 | 1014.8 |
| 20260905151521 | 80 | 59 | 0.0 | 0.0 | 0.00 | 0.00 | 0.00 | 64 | 1015.0 |
| 20260905150022 | 79 | 59 | 0.0 | 0.0 | 0.00 | 0.00 | 0.00 | 61 | 1015.0 |
| 20260905144539 | 78 | 59 | 0.0 | 0.0 | 0.00 | 0.00 | 0.00 | 61 | 1015.1 |
| 20260905143020 | 78 | 59 | 0.0 | 0.0 | 0.00 | 0.00 | 0.00 | 61 | 1014.9 |
| 20260905141533 | 77 | 59 | 0.0 | 0.0 | 0.00 | 0.00 | 0.00 | 61 | 1014.9 |
| 20260905140015 | 76 | 59 | 0.0 | 0.0 | 0.00 | 0.00 | 0.00 | 61 | 1014.9 |
| 20260905134512 | 75 | 59 | 0.0 | 0.0 | 0.00 | 0.00 | 0.00 | 62 | 1015.0 |
| 20260905133016 | 75 | 59 | 0.0 | 0.0 | 0.00 | 0.00 | 0.00 | 63 | 1014.9 |
| 20260905131503 | 74 | 59 | 0.0 | 0.0 | 0.00 | 0.00 | 0.00 | 64 | 1014.9 |
| 20260905130020 | 74 | 59 | 0.0 | 0.0 | 0.00 | 0.00 | 0.00 | 64 | 1014.9 |
| 20260905124508 | 73 | 59 | 0.0 | 0.0 | 0.00 | 0.00 | 0.00 | 66 | 1014.7 |
| 20260905123021 | 72 | 59 | 0.0 | 0.0 | 0.00 | 0.00 | 0.00 | 68 | 1014.5 |
| 20260905121509 | 72 | 59 | 0.0 | 0.0 | 0.00 | 0.00 | 0.00 | 68 | 1014.5 |
| 20260905120043 | 72 | 59 | 0.0 | 0.0 | 0.00 | 0.00 | 0.00 | 68 | 1014.5 |
| 20260905114520 | 72 | 59 | 0.0 | 0.0 | 0.00 | 0.00 | 0.00 | 68 | 1014.4 |
| 20260905113015 | 72 | 59 | 0.0 | 0.0 | 0.00 | 0.00 | 0.00 | 68 | 1014.4 |
| 20260905111519 | 73 | 59 | 0.0 | 0.0 | 0.00 | 0.00 | 0.00 | 69 | 1014.1 |
| 20260905110016 | 73 | 59 | 0.0 | 0.0 | 0.00 | 0.00 | 0.00 | 69 | 1014.1 |
| 20260905104507 | 73 | 59 | 0.0 | 0.0 | 0.00 | 0.00 | 0.00 | 69 | 1013.9 |
| 20260905103028 | 73 | 59 | 0.0 | 0.0 | 0.00 | 0.00 | 0.00 | 69 | 1014.0 |
| 20260905101513 | 73 | 59 | 0.0 | 0.0 | 0.00 | 0.00 | 0.00 | 69 | 1013.9 |
| 20260905100016 | 73 | 59 | 0.0 | 0.0 | 0.00 | 0.00 | 0.00 | 69 | 1013.7 |
| 20260905094508 | 74 | 59 | 0.0 | 0.0 | 0.00 | 0.00 | 0.00 | 69 | 1013.8 |
| 20260905093019 | 74 | 59 | 0.0 | 0.0 | 0.00 | 0.00 | 0.00 | 69 | 1013.8 |
| 20260905091512 | 74 | 59 | 0.0 | 0.0 | 0.00 | 0.00 | 0.00 | 69 | 1013.8 |
| 20260905090007 | 74 | 59 | 0.0 | 0.0 | 0.00 | 0.00 | 0.00 | 69 | 1013.9 |
| 20260905084518 | 74 | 59 | 0.0 | 0.0 | 0.00 | 0.00 | 0.00 | 69 | 1013.6 |
| 20260905083005 | 74 | 59 | 0.0 | 0.0 | 0.00 | 0.00 | 0.00 | 70 | 1013.7 |
| 20260905081512 | 74 | 59 | 0.0 | 0.0 | 0.00 | 0.00 | 0.00 | 70 | 1013.7 |
| 20260905080027 | 75 | 59 | 0.0 | 0.0 | 0.00 | 0.00 | 0.00 | 70 | 1013.7 |
| 20260905074517 | 75 | 59 | 0.0 | 0.0 | 0.00 | 0.00 | 0.00 | 70 | 1013.6 |
| 20260905073033 | 75 | 59 | 0.0 | 0.0 | 0.00 | 0.00 | 0.00 | 71 | 1013.7 |
| 20260905071514 | 75 | 59 | 0.0 | 0.0 | 0.00 | 0.00 | 0.00 | 71 | 1013.7 |
| 20260905070006 | 75 | 59 | 0.0 | 0.0 | 0.00 | 0.00 | 0.00 | 71 | 1013.7 |
| 20260905064518 | 75 | 59 | 0.0 | 0.0 | 0.00 | 0.00 | 0.00 | 71 | 1013.7 |
| 20260905063010 | 76 | 59 | 0.0 | 0.0 | 0.00 | 0.00 | 0.00 | 72 | 1013.9 |
| 20260905061520 | 76 | 59 | 0.0 | 0.0 | 0.00 | 0.00 | 0.00 | 72 | 1013.8 |
| 20260905060015 | 76 | 59 | 0.0 | 0.0 | 0.00 | 0.00 | 0.00 | 72 | 1013.9 |
| 20260905054522 | 76 | 59 | 0.0 | 0.0 | 0.00 | 0.00 | 0.00 | 72 | 1013.9 |
| 20260905053015 | 76 | 59 | 0.0 | 0.0 | 0.00 | 0.00 | 0.00 | 72 | 1014.0 |
| 20260905051505 | 77 | 59 | 0.0 | 0.0 | 0.00 | 0.00 | 0.00 | 73 | 1014.0 |
| 20260905050019 | 77 | 59 | 0.0 | 0.0 | 0.00 | 0.00 | 0.00 | 73 | 1014.1 |
| 20260905044511 | 77 | 59 | 0.0 | 0.0 | 0.00 | 0.00 | 0.00 | 74 | 1014.2 |
| 20260905043022 | 77 | 59 | 0.0 | 0.0 | 0.00 | 0.00 | 0.00 | 74 | 1014.2 |
| 20260905041513 | 78 | 59 | 0.0 | 0.0 | 0.00 | 0.00 | 0.00 | 74 | 1014.4 |
| 20260905040027 | 78 | 59 | 0.0 | 0.0 | 0.00 | 0.00 | 0.00 | 74 | 1014.5 |
| 20260905034516 | 78 | 59 | 0.0 | 0.0 | 0.00 | 0.00 | 0.00 | 75 | 1014.6 |
| 20260905033042 | 79 | 59 | 0.0 | 0.0 | 0.00 | 0.00 | 0.00 | 75 | 1014.5 |
| 20260905031524 | 79 | 59 | 0.0 | 0.0 | 0.00 | 0.00 | 0.00 | 75 | 1014.6 |
| 20260905030007 | 79 | 59 | 0.0 | 0.0 | 0.00 | 0.00 | 0.00 | 76 | 1014.6 |
| 20260905024516 | 80 | 59 | 0.0 | 0.0 | 0.00 | 0.00 | 0.00 | 76 | 1014.5 |
| 20260905023036 | 80 | 59 | 0.0 | 0.0 | 0.00 | 0.00 | 0.00 | 76 | 1014.4 |